Time,TemperatureF,DewpointF,PressureIn,WindDirection,WindDirectionDegrees,WindSpeedMPH,WindSpeedGustMPH,Humidity,HourlyPrecipIn,Conditions,Clouds,dailyrainin,SolarRadiationWatts/m^2,SoftwareType,DateUTC
2013-02-14 00:00:00,73.1,69.7,29.92,SW,223,1.0,5.0,89,0.00,,CLR,0.00,0.00,VWS V14.00,2013-02-14 05:00:00,
2013-02-14 00:05:00,73.1,69.7,29.92,SW,223,0.0,0.0,89,0.00,,CLR,0.00,0.00,VWS V14.00,2013-02-14 05:05:00,
2013-02-14 00:10:00,73.0,69.9,29.92,SW,225,3.0,7.0,90,0.00,,CLR,0.00,0.00,VWS V14.00,2013-02-14 05:10:00,
2013-02-14 00:15:00,73.0,69.9,29.92,SW,228,0.0,5.0,90,0.00,,CLR,0.00,0.00,VWS V14.00,2013-02-14 05:15:00,
2013-02-14 00:20:00,72.9,69.8,29.92,SW,228,1.0,4.0,90,0.00,,CLR,0.00,0.00,VWS V14.00,2013-02-14 05:20:00,
2013-02-14 00:25:00,72.8,69.7,29.92,SW,228,0.0,5.0,90,0.00,,CLR,0.00,0.00,VWS V14.00,2013-02-14 05:25:00,
2013-02-14 00:30:00,72.8,69.7,29.91,SW,228,0.0,3.0,90,0.00,,CLR,0.00,0.00,VWS V14.00,2013-02-14 05:30:00,
2013-02-14 00:35:00,72.7,69.6,29.91,SW,228,0.0,2.0,90,0.00,,CLR,0.00,0.00,VWS V14.00,2013-02-14 05:35:00,
2013-02-14 00:40:00,72.6,69.5,29.91,SW,228,0.0,0.0,90,0.00,,CLR,0.00,0.00,VWS V14.00,2013-02-14 05:40:00,
2013-02-14 00:45:00,72.5,69.4,29.91,SW,228,2.0,3.0,90,0.00,,CLR,0.00,0.00,VWS V14.00,2013-02-14 05:45:00,
2013-02-14 00:50:00,72.4,69.3,29.91,SW,228,0.0,3.0,90,0.00,,CLR,0.00,0.00,VWS V14.00,2013-02-14 05:50:00,
2013-02-14 00:56:00,72.4,69.3,29.91,SW,228,0.0,3.0,90,0.00,,CLR,0.00,0.00,VWS V14.00,2013-02-14 05:56:00,
2013-02-14 01:01:00,72.4,69.3,29.91,SW,228,0.0,0.0,90,0.00,,CLR,0.00,0.00,VWS V14.00,2013-02-14 06:01:00,
2013-02-14 01:06:00,72.3,69.2,29.90,SW,225,0.0,0.0,90,0.00,,CLR,0.00,0.00,VWS V14.00,2013-02-14 06:06:00,
2013-02-14 01:11:00,72.3,69.2,29.90,SW,225,0.0,2.0,90,0.00,,CLR,0.00,0.00,VWS V14.00,2013-02-14 06:11:00,
2013-02-14 01:16:00,72.2,69.1,29.90,SW,225,0.0,1.0,90,0.00,,CLR,0.00,0.00,VWS V14.00,2013-02-14 06:16:00,
2013-02-14 01:21:00,72.2,69.1,29.90,SW,225,0.0,1.0,90,0.00,,CLR,0.00,0.00,VWS V14.00,2013-02-14 06:21:00,
2013-02-14 01:26:00,72.1,69.0,29.90,SW,225,0.0,0.0,90,0.00,,CLR,0.00,0.00,VWS V14.00,2013-02-14 06:26:00,
2013-02-14 01:30:00,72.1,69.0,29.90,SW,225,0.0,0.0,90,0.00,,CLR,0.00,0.00,VWS V14.00,2013-02-14 06:30:00,
2013-02-14 01:35:00,72.0,68.9,29.90,SW,225,0.0,0.0,90,0.00,,CLR,0.00,0.00,VWS V14.00,2013-02-14 06:35:00,
2013-02-14 01:40:00,72.0,68.9,29.90,SW,225,0.0,2.0,90,0.00,,CLR,0.00,0.00,VWS V14.00,2013-02-14 06:40:00,
2013-02-14 01:45:00,71.9,68.8,29.90,SW,225,0.0,0.0,90,0.00,,CLR,0.00,0.00,VWS V14.00,2013-02-14 06:45:00,
2013-02-14 01:50:00,71.9,68.8,29.89,SW,225,0.0,0.0,90,0.00,,CLR,0.00,0.00,VWS V14.00,2013-02-14 06:50:00,
2013-02-14 01:55:00,71.8,68.7,29.89,SW,225,0.0,0.0,90,0.00,,CLR,0.00,0.00,VWS V14.00,2013-02-14 06:55:00,
2013-02-14 02:00:00,71.7,68.6,29.89,SW,225,0.0,0.0,90,0.00,,CLR,0.00,0.00,VWS V14.00,2013-02-14 07:00:00,
2013-02-14 02:05:00,71.7,68.6,29.89,SW,225,0.0,0.0,90,0.00,,CLR,0.00,0.00,VWS V14.00,2013-02-14 07:05:00,
2013-02-14 02:10:00,71.6,68.5,29.89,SW,225,0.0,0.0,90,0.00,,CLR,0.00,0.00,VWS V14.00,2013-02-14 07:10:00,
2013-02-14 02:15:00,71.5,68.4,29.89,SW,225,0.0,0.0,90,0.00,,CLR,0.00,0.00,VWS V14.00,2013-02-14 07:15:00,
2013-02-14 02:20:00,71.6,68.5,29.89,SW,225,0.0,0.0,90,0.00,,CLR,0.00,0.00,VWS V14.00,2013-02-14 07:20:00,
2013-02-14 02:26:00,71.6,68.5,29.89,SW,225,0.0,0.0,90,0.00,,CLR,0.00,0.00,VWS V14.00,2013-02-14 07:26:00,
2013-02-14 02:30:00,71.5,68.7,29.88,SW,225,0.0,0.0,91,0.00,,CLR,0.00,0.00,VWS V14.00,2013-02-14 07:30:00,
2013-02-14 02:36:00,71.5,68.7,29.89,SW,225,0.0,0.0,91,0.00,,CLR,0.00,0.00,VWS V14.00,2013-02-14 07:36:00,
2013-02-14 02:41:00,71.4,68.6,29.89,SW,225,0.0,2.0,91,0.00,,CLR,0.00,0.00,VWS V14.00,2013-02-14 07:41:00,
2013-02-14 02:46:00,71.4,68.6,29.89,SW,225,0.0,0.0,91,0.00,,CLR,0.00,0.00,VWS V14.00,2013-02-14 07:46:00,
2013-02-14 02:51:00,71.3,68.5,29.89,SW,225,0.0,1.0,91,0.00,,CLR,0.00,0.00,VWS V14.00,2013-02-14 07:51:00,
2013-02-14 02:56:00,71.3,68.2,29.89,SW,225,0.0,0.0,90,0.00,,CLR,0.00,0.00,VWS V14.00,2013-02-14 07:56:00,
2013-02-14 03:01:00,71.4,68.3,29.89,SW,225,0.0,0.0,90,0.00,,CLR,0.00,0.00,VWS V14.00,2013-02-14 08:01:00,
2013-02-14 03:06:00,71.4,68.3,29.89,SW,225,0.0,0.0,90,0.00,,CLR,0.00,0.00,VWS V14.00,2013-02-14 08:06:00,
2013-02-14 03:11:00,71.5,68.4,29.89,SW,225,0.0,0.0,90,0.00,,CLR,0.00,0.00,VWS V14.00,2013-02-14 08:11:00,
2013-02-14 03:16:00,71.5,68.4,29.89,SW,225,0.0,0.0,90,0.00,,CLR,0.00,0.00,VWS V14.00,2013-02-14 08:16:00,
2013-02-14 03:21:00,71.6,68.5,29.88,SW,225,0.0,0.0,90,0.00,,CLR,0.00,0.00,VWS V14.00,2013-02-14 08:21:00,
2013-02-14 03:26:00,71.7,68.6,29.89,SW,225,0.0,0.0,90,0.00,,CLR,0.00,0.00,VWS V14.00,2013-02-14 08:26:00,
2013-02-14 03:31:00,71.7,68.6,29.88,SW,225,0.0,0.0,90,0.00,,CLR,0.00,0.00,VWS V14.00,2013-02-14 08:31:00,
2013-02-14 03:36:00,71.7,68.6,29.89,SW,225,0.0,0.0,90,0.00,,CLR,0.00,0.00,VWS V14.00,2013-02-14 08:36:00,
2013-02-14 03:41:00,71.8,68.4,29.89,SW,225,0.0,0.0,89,0.00,,CLR,0.00,0.00,VWS V14.00,2013-02-14 08:41:00,
2013-02-14 03:46:00,71.8,68.4,29.88,SW,225,0.0,0.0,89,0.00,,CLR,0.00,0.00,VWS V14.00,2013-02-14 08:46:00,
2013-02-14 03:51:00,71.8,68.4,29.88,SW,225,0.0,0.0,89,0.00,,CLR,0.00,0.00,VWS V14.00,2013-02-14 08:51:00,
2013-02-14 03:56:00,71.8,68.4,29.88,SW,225,0.0,0.0,89,0.00,,CLR,0.00,0.00,VWS V14.00,2013-02-14 08:56:00,
2013-02-14 04:01:00,71.7,68.3,29.88,SW,225,0.0,1.0,89,0.00,,CLR,0.00,0.00,VWS V14.00,2013-02-14 09:01:00,
2013-02-14 04:06:00,71.7,68.3,29.88,SW,225,0.0,0.0,89,0.00,,CLR,0.00,0.00,VWS V14.00,2013-02-14 09:06:00,
2013-02-14 04:11:00,71.7,68.3,29.88,SW,225,0.0,0.0,89,0.00,,CLR,0.00,0.00,VWS V14.00,2013-02-14 09:11:00,
2013-02-14 04:16:00,71.8,68.4,29.89,SW,232,5.0,5.0,89,0.00,,CLR,0.00,0.00,VWS V14.00,2013-02-14 09:16:00,
2013-02-14 04:21:00,71.8,68.4,29.89,NNW,336,4.0,5.0,89,0.00,,CLR,0.00,0.00,VWS V14.00,2013-02-14 09:21:00,
2013-02-14 04:26:00,71.7,68.6,29.89,NNW,336,0.0,4.0,90,0.00,,CLR,0.00,0.00,VWS V14.00,2013-02-14 09:26:00,
2013-02-14 04:31:00,71.5,68.4,29.89,NNW,336,4.0,5.0,90,0.00,,CLR,0.00,0.00,VWS V14.00,2013-02-14 09:31:00,
2013-02-14 04:36:00,71.4,68.3,29.89,NNW,335,4.0,4.0,90,0.00,,CLR,0.00,0.00,VWS V14.00,2013-02-14 09:36:00,
2013-02-14 04:41:00,71.4,68.3,29.88,NNW,335,0.0,0.0,90,0.00,,CLR,0.00,0.00,VWS V14.00,2013-02-14 09:41:00,
2013-02-14 04:46:00,71.4,68.3,29.88,NNW,335,3.0,4.0,90,0.00,,CLR,0.00,0.00,VWS V14.00,2013-02-14 09:46:00,
2013-02-14 04:51:00,71.4,68.6,29.89,NNW,336,0.0,5.0,91,0.00,,CLR,0.00,0.00,VWS V14.00,2013-02-14 09:51:00,
2013-02-14 04:56:00,71.4,68.6,29.89,NNW,342,5.0,7.0,91,0.00,,CLR,0.00,0.00,VWS V14.00,2013-02-14 09:56:00,
2013-02-14 05:01:00,71.3,68.5,29.89,NNW,342,0.0,3.0,91,0.00,,CLR,0.00,0.00,VWS V14.00,2013-02-14 10:01:00,
2013-02-14 05:06:00,71.3,68.5,29.89,NNW,342,0.0,0.0,91,0.00,,CLR,0.00,0.00,VWS V14.00,2013-02-14 10:06:00,
2013-02-14 05:11:00,71.3,68.5,29.89,NNW,342,0.0,0.0,91,0.00,,CLR,0.00,0.00,VWS V14.00,2013-02-14 10:11:00,
2013-02-14 05:16:00,71.3,68.5,29.89,NNW,342,0.0,0.0,91,0.00,,CLR,0.00,0.00,VWS V14.00,2013-02-14 10:16:00,
2013-02-14 05:21:00,71.2,68.4,29.89,NNW,342,3.0,4.0,91,0.00,,CLR,0.00,0.00,VWS V14.00,2013-02-14 10:21:00,
2013-02-14 05:26:00,70.9,68.2,29.89,North,349,3.0,5.0,91,0.00,,CLR,0.00,0.00,VWS V14.00,2013-02-14 10:26:00,
2013-02-14 05:31:00,70.6,67.8,29.89,North,349,0.0,2.0,91,0.00,,CLR,0.00,0.00,VWS V14.00,2013-02-14 10:31:00,
2013-02-14 05:36:00,70.4,67.7,29.89,North,349,0.0,0.0,91,0.00,,CLR,0.00,0.00,VWS V14.00,2013-02-14 10:36:00,
2013-02-14 05:41:00,70.3,67.6,29.89,North,349,3.0,3.0,91,0.00,,CLR,0.00,0.00,VWS V14.00,2013-02-14 10:41:00,
2013-02-14 05:46:00,70.1,67.4,29.89,North,349,0.0,0.0,91,0.00,,CLR,0.00,0.00,VWS V14.00,2013-02-14 10:46:00,
2013-02-14 05:51:00,69.9,67.2,29.89,North,349,0.0,1.0,91,0.00,,CLR,0.00,0.00,VWS V14.00,2013-02-14 10:51:00,
2013-02-14 05:56:00,69.8,67.1,29.90,North,349,0.0,3.0,91,0.00,,CLR,0.00,0.00,VWS V14.00,2013-02-14 10:56:00,
2013-02-14 06:01:00,69.7,67.0,29.90,North,349,0.0,1.0,91,0.00,,CLR,0.00,0.00,VWS V14.00,2013-02-14 11:01:00,
2013-02-14 06:06:00,69.4,66.7,29.90,North,349,3.0,4.0,91,0.00,,CLR,0.00,0.00,VWS V14.00,2013-02-14 11:06:00,
2013-02-14 06:11:00,69.1,66.4,29.91,North,349,0.0,0.0,91,0.00,,CLR,0.00,0.00,VWS V14.00,2013-02-14 11:11:00,
2013-02-14 06:16:00,68.9,66.2,29.91,North,349,0.0,0.0,91,0.00,,CLR,0.00,0.00,VWS V14.00,2013-02-14 11:16:00,
2013-02-14 06:21:00,68.8,66.1,29.91,North,349,0.0,0.0,91,0.00,,CLR,0.00,0.00,VWS V14.00,2013-02-14 11:21:00,
2013-02-14 06:26:00,68.7,66.0,29.91,North,349,0.0,0.0,91,0.00,,CLR,0.00,0.00,VWS V14.00,2013-02-14 11:26:00,
2013-02-14 06:31:00,68.6,65.9,29.91,North,349,0.0,0.0,91,0.00,,CLR,0.00,0.00,VWS V14.00,2013-02-14 11:31:00,
2013-02-14 06:36:00,68.7,66.0,29.91,North,349,0.0,0.0,91,0.00,,CLR,0.00,0.00,VWS V14.00,2013-02-14 11:36:00,
2013-02-14 06:41:00,68.8,66.1,29.91,North,349,0.0,1.0,91,0.00,,CLR,0.00,0.00,VWS V14.00,2013-02-14 11:41:00,
2013-02-14 06:46:00,68.8,66.1,29.91,North,349,0.0,0.0,91,0.00,,CLR,0.00,0.00,VWS V14.00,2013-02-14 11:46:00,
2013-02-14 06:51:00,68.9,66.2,29.91,North,349,0.0,1.0,91,0.00,,CLR,0.00,0.00,VWS V14.00,2013-02-14 11:51:00,
2013-02-14 06:56:00,69.0,66.3,29.91,North,349,0.0,0.0,91,0.00,,CLR,0.00,0.00,VWS V14.00,2013-02-14 11:56:00,
2013-02-14 07:01:00,69.1,66.4,29.91,North,349,0.0,0.0,91,0.00,,CLR,0.00,0.00,VWS V14.00,2013-02-14 12:01:00,
2013-02-14 07:06:00,69.1,66.4,29.91,North,349,3.0,4.0,91,0.00,,CLR,0.00,0.00,VWS V14.00,2013-02-14 12:06:00,
2013-02-14 07:11:00,69.0,66.3,29.92,North,349,0.0,1.0,91,0.00,,CLR,0.00,5.00,VWS V14.00,2013-02-14 12:11:00,
2013-02-14 07:16:00,69.0,66.3,29.92,North,349,0.0,0.0,91,0.00,,CLR,0.00,9.00,VWS V14.00,2013-02-14 12:16:00,
2013-02-14 07:21:00,69.0,66.3,29.92,NNE,19,4.0,4.0,91,0.00,,CLR,0.00,11.00,VWS V14.00,2013-02-14 12:21:00,
2013-02-14 07:26:00,69.0,66.3,29.92,NNE,21,0.0,3.0,91,0.00,,CLR,0.00,11.00,VWS V14.00,2013-02-14 12:26:00,
2013-02-14 07:31:00,68.9,66.2,29.92,NNE,24,0.0,0.0,91,0.00,,CLR,0.00,12.00,VWS V14.00,2013-02-14 12:31:00,
2013-02-14 07:36:00,69.0,66.3,29.93,NNE,24,3.0,4.0,91,0.00,,OVC040,0.00,9.00,VWS V14.00,2013-02-14 12:36:00,
2013-02-14 07:41:00,69.0,66.3,29.92,NNE,24,0.0,0.0,91,0.00,,OVC040,0.00,14.00,VWS V14.00,2013-02-14 12:41:00,
2013-02-14 07:46:00,69.0,66.3,29.92,NNE,33,3.0,3.0,91,0.00,,OVC040,0.00,18.00,VWS V14.00,2013-02-14 12:46:00,
2013-02-14 07:51:00,69.1,66.4,29.93,NE,34,3.0,3.0,91,0.00,,OVC040,0.00,26.00,VWS V14.00,2013-02-14 12:51:00,
2013-02-14 07:56:00,69.2,66.5,29.93,NE,34,2.0,3.0,91,0.00,,OVC040,0.00,32.00,VWS V14.00,2013-02-14 12:56:00,
2013-02-14 08:01:00,69.3,66.6,29.93,NE,34,0.0,1.0,91,0.00,,OVC040,0.00,33.00,VWS V14.00,2013-02-14 13:01:00,
2013-02-14 08:06:00,69.3,66.2,29.92,NE,38,5.0,6.0,90,0.00,,OVC040,0.00,39.00,VWS V14.00,2013-02-14 13:06:00,
2013-02-14 08:11:00,69.6,66.5,29.92,NE,38,1.0,1.0,90,0.00,,OVC040,0.00,69.00,VWS V14.00,2013-02-14 13:11:00,
2013-02-14 08:16:00,69.8,66.7,29.93,NE,38,0.0,3.0,90,0.00,,OVC040,0.00,69.00,VWS V14.00,2013-02-14 13:16:00,
2013-02-14 08:21:00,70.0,66.6,29.93,NE,38,4.0,4.0,89,0.00,,OVC040,0.00,70.00,VWS V14.00,2013-02-14 13:21:00,
2013-02-14 08:26:00,70.3,66.9,29.93,NE,39,0.0,3.0,89,0.00,,OVC040,0.00,42.00,VWS V14.00,2013-02-14 13:26:00,
2013-02-14 08:31:00,70.4,67.0,29.93,NE,40,0.0,1.0,89,0.00,,OVC040,0.00,25.00,VWS V14.00,2013-02-14 13:31:00,
2013-02-14 08:36:00,70.5,66.8,29.94,NE,40,0.0,4.0,88,0.00,,OVC040,0.00,16.00,VWS V14.00,2013-02-14 13:36:00,
2013-02-14 08:41:00,70.6,66.9,29.94,NE,40,0.0,1.0,88,0.00,,OVC040,0.00,25.00,VWS V14.00,2013-02-14 13:41:00,
2013-02-14 08:46:00,70.6,66.9,29.94,NE,40,0.0,0.0,88,0.00,,OVC040,0.00,18.00,VWS V14.00,2013-02-14 13:46:00,
2013-02-14 08:51:00,70.6,66.9,29.94,NE,40,2.0,3.0,88,0.00,,OVC040,0.00,23.00,VWS V14.00,2013-02-14 13:51:00,
2013-02-14 08:56:00,70.7,67.0,29.94,NE,40,2.0,4.0,88,0.00,,OVC040,0.00,19.00,VWS V14.00,2013-02-14 13:56:00,
2013-02-14 09:01:00,70.6,66.9,29.95,NNE,28,4.0,4.0,88,0.00,,OVC040,0.00,14.00,VWS V14.00,2013-02-14 14:01:00,
2013-02-14 09:06:00,70.5,66.8,29.95,North,360,5.0,9.0,88,0.00,,OVC040,0.00,19.00,VWS V14.00,2013-02-14 14:06:00,
2013-02-14 09:11:00,70.2,66.5,29.95,NNW,340,2.0,5.0,88,0.00,,OVC040,0.00,30.00,VWS V14.00,2013-02-14 14:11:00,
2013-02-14 09:16:00,69.8,66.4,29.95,NNW,346,5.0,6.0,89,0.00,,OVC040,0.00,44.00,VWS V14.00,2013-02-14 14:16:00,
2013-02-14 09:21:00,69.4,66.0,29.95,North,9,6.0,7.0,89,0.00,,OVC040,0.00,39.00,VWS V14.00,2013-02-14 14:21:00,
2013-02-14 09:26:00,69.1,65.7,29.95,North,11,4.0,7.0,89,0.00,,OVC040,0.00,39.00,VWS V14.00,2013-02-14 14:26:00,
2013-02-14 09:31:00,68.8,65.4,29.95,North,5,5.0,7.0,89,0.00,,OVC040,0.00,44.00,VWS V14.00,2013-02-14 14:31:00,
2013-02-14 09:36:00,68.7,65.7,29.95,North,5,5.0,5.0,90,0.00,,OVC012,0.00,46.00,VWS V14.00,2013-02-14 14:36:00,
2013-02-14 09:41:00,68.5,65.5,29.95,North,5,5.0,5.0,90,0.00,,OVC012,0.00,42.00,VWS V14.00,2013-02-14 14:41:00,
2013-02-14 09:46:00,68.5,65.5,29.96,North,5,4.0,5.0,90,0.00,,OVC012,0.00,39.00,VWS V14.00,2013-02-14 14:46:00,
2013-02-14 09:51:00,68.3,65.3,29.96,North,5,0.0,3.0,90,0.00,,OVC012,0.00,42.00,VWS V14.00,2013-02-14 14:51:00,
2013-02-14 09:56:00,68.3,65.3,29.96,North,5,4.0,5.0,90,0.00,,OVC012,0.00,37.00,VWS V14.00,2013-02-14 14:56:00,
2013-02-14 10:01:00,68.2,65.2,29.96,North,9,4.0,5.0,90,0.00,,OVC012,0.00,33.00,VWS V14.00,2013-02-14 15:01:00,
2013-02-14 10:06:00,68.2,65.2,29.96,North,9,3.0,4.0,90,0.00,,OVC012,0.00,30.00,VWS V14.00,2013-02-14 15:06:00,
2013-02-14 10:12:00,68.1,65.1,29.96,North,9,1.0,2.0,90,0.00,,OVC012,0.00,26.00,VWS V14.00,2013-02-14 15:12:00,
2013-02-14 10:16:00,68.1,65.1,29.96,North,5,2.0,4.0,90,0.00,,OVC012,0.00,30.00,VWS V14.00,2013-02-14 15:16:00,
2013-02-14 10:21:00,68.2,65.2,29.96,North,9,0.0,2.0,90,0.00,,OVC012,0.00,32.00,VWS V14.00,2013-02-14 15:21:00,
2013-02-14 10:26:00,68.3,65.3,29.96,North,9,0.0,0.0,90,0.00,,OVC012,0.00,40.00,VWS V14.00,2013-02-14 15:26:00,
2013-02-14 10:32:00,68.5,65.5,29.96,North,5,2.0,3.0,90,0.00,,OVC012,0.00,56.00,VWS V14.00,2013-02-14 15:32:00,
2013-02-14 10:37:00,68.6,65.6,29.95,North,5,0.0,1.0,90,0.00,,-RA,0.00,69.00,VWS V14.00,2013-02-14 15:37:00,
2013-02-14 10:42:00,68.8,65.8,29.95,NNE,20,3.0,3.0,90,0.00,,-RA,0.00,67.00,VWS V14.00,2013-02-14 15:42:00,
2013-02-14 10:47:00,69.0,65.9,29.95,NNE,24,2.0,3.0,90,0.00,,-RA,0.00,67.00,VWS V14.00,2013-02-14 15:47:00,
2013-02-14 10:52:00,69.4,66.3,29.95,NE,43,3.0,6.0,90,0.00,,-RA,0.00,88.00,VWS V14.00,2013-02-14 15:52:00,
2013-02-14 10:57:00,69.7,66.6,29.95,NE,44,5.0,5.0,90,0.00,,-RA,0.00,84.00,VWS V14.00,2013-02-14 15:57:00,
2013-02-14 11:02:00,70.1,66.7,29.95,ENE,61,2.0,5.0,89,0.00,,-RA,0.00,111.00,VWS V14.00,2013-02-14 16:02:00,
2013-02-14 11:07:00,70.5,67.1,29.95,ENE,67,2.0,2.0,89,0.00,,-RA,0.00,113.00,VWS V14.00,2013-02-14 16:07:00,
2013-02-14 11:12:00,71.0,67.6,29.94,ENE,74,5.0,5.0,89,0.00,,-RA,0.00,125.00,VWS V14.00,2013-02-14 16:12:00,
2013-02-14 11:17:00,71.5,67.8,29.94,East,90,6.0,7.0,88,0.00,,-RA,0.00,134.00,VWS V14.00,2013-02-14 16:17:00,
2013-02-14 11:22:00,72.0,68.3,29.93,East,97,4.0,7.0,88,0.00,,-RA,0.00,125.00,VWS V14.00,2013-02-14 16:22:00,
2013-02-14 11:27:00,72.4,68.3,29.94,ESE,102,0.0,3.0,87,0.00,,-RA,0.00,116.00,VWS V14.00,2013-02-14 16:27:00,
2013-02-14 11:32:00,72.8,68.7,29.94,East,98,6.0,6.0,87,0.00,,-RA,0.00,79.00,VWS V14.00,2013-02-14 16:32:00,
2013-02-14 11:37:00,72.9,68.5,29.94,East,94,0.0,1.0,86,0.00,,OVC017,0.00,70.00,VWS V14.00,2013-02-14 16:37:00,
2013-02-14 11:42:00,73.1,68.7,29.94,East,96,5.0,7.0,86,0.00,,OVC017,0.00,95.00,VWS V14.00,2013-02-14 16:42:00,
2013-02-14 11:47:00,73.3,68.9,29.93,East,98,1.0,4.0,86,0.00,,OVC017,0.00,123.00,VWS V14.00,2013-02-14 16:47:00,
2013-02-14 11:52:00,73.7,68.9,29.93,ESE,102,4.0,6.0,85,0.00,,OVC017,0.00,102.00,VWS V14.00,2013-02-14 16:52:00,
2013-02-14 11:57:00,74.1,69.3,29.93,ESE,104,4.0,4.0,85,0.00,,OVC017,0.00,69.00,VWS V14.00,2013-02-14 16:57:00,
2013-02-14 12:02:00,74.2,69.4,29.93,ESE,104,0.0,3.0,85,0.00,,OVC017,0.00,65.00,VWS V14.00,2013-02-14 17:02:00,
2013-02-14 12:07:00,74.4,69.3,29.93,ESE,104,0.0,1.0,84,0.00,,OVC017,0.00,60.00,VWS V14.00,2013-02-14 17:07:00,
2013-02-14 12:12:00,74.6,69.1,29.92,ESE,104,2.0,4.0,83,0.00,,OVC017,0.00,74.00,VWS V14.00,2013-02-14 17:12:00,
2013-02-14 12:17:00,74.6,69.4,29.92,ESE,104,0.0,1.0,84,0.00,,OVC017,0.00,70.00,VWS V14.00,2013-02-14 17:17:00,
2013-02-14 12:22:00,74.6,69.4,29.92,ESE,104,0.0,1.0,84,0.00,,OVC017,0.00,91.00,VWS V14.00,2013-02-14 17:22:00,
2013-02-14 12:27:00,74.8,69.7,29.92,ESE,104,0.0,1.0,84,0.00,,OVC017,0.00,134.00,VWS V14.00,2013-02-14 17:27:00,
2013-02-14 12:32:00,75.1,69.6,29.91,ESE,104,3.0,5.0,83,0.00,,OVC017,0.00,155.00,VWS V14.00,2013-02-14 17:32:00,
2013-02-14 12:37:00,75.4,69.9,29.90,ESE,104,0.0,0.0,83,0.00,,SCT020,0.00,160.00,VWS V14.00,2013-02-14 17:37:00,
2013-02-14 12:42:00,76.4,70.9,29.90,ESE,104,0.0,2.0,83,0.00,,SCT020,0.00,153.00,VWS V14.00,2013-02-14 17:42:00,
2013-02-14 12:47:00,77.4,70.8,29.90,ESE,109,0.0,3.0,80,0.00,,SCT020,0.00,155.00,VWS V14.00,2013-02-14 17:47:00,
2013-02-14 12:52:00,77.8,70.8,29.90,ESE,109,0.0,0.0,79,0.00,,SCT020,0.00,171.00,VWS V14.00,2013-02-14 17:52:00,
2013-02-14 12:57:00,78.2,71.2,29.89,ESE,109,5.0,5.0,79,0.00,,SCT020,0.00,98.00,VWS V14.00,2013-02-14 17:57:00,
2013-02-14 13:02:00,78.4,70.6,29.89,SE,125,0.0,1.0,77,0.00,,SCT020,0.00,104.00,VWS V14.00,2013-02-14 18:02:00,
2013-02-14 13:07:00,78.7,70.9,29.89,SSE,154,0.0,1.0,77,0.00,,SCT020,0.00,91.00,VWS V14.00,2013-02-14 18:07:00,
2013-02-14 13:12:00,78.7,70.9,29.88,SSE,148,0.0,0.0,77,0.00,,SCT020,0.00,88.00,VWS V14.00,2013-02-14 18:12:00,
2013-02-14 13:17:00,78.7,70.9,29.88,SSE,148,0.0,1.0,77,0.00,,SCT020,0.00,123.00,VWS V14.00,2013-02-14 18:17:00,
2013-02-14 13:22:00,79.0,70.8,29.88,SSE,148,1.0,3.0,76,0.00,,SCT020,0.00,74.00,VWS V14.00,2013-02-14 18:22:00,
2013-02-14 13:27:00,79.0,70.8,29.88,SSE,148,1.0,1.0,76,0.00,,SCT020,0.00,54.00,VWS V14.00,2013-02-14 18:27:00,
2013-02-14 13:32:00,78.9,70.7,29.87,SSE,148,0.0,1.0,76,0.00,,SCT020,0.00,51.00,VWS V14.00,2013-02-14 18:32:00,
2013-02-14 13:37:00,78.8,70.6,29.87,SSE,148,0.0,0.0,76,0.00,,SCT020CU,0.00,69.00,VWS V14.00,2013-02-14 18:37:00,
2013-02-14 13:42:00,78.8,70.6,29.86,SSE,148,2.0,5.0,76,0.00,,SCT020CU,0.00,72.00,VWS V14.00,2013-02-14 18:42:00,
2013-02-14 13:47:00,78.7,70.9,29.86,SSE,166,11.0,13.0,77,0.00,,SCT020CU,0.00,54.00,VWS V14.00,2013-02-14 18:47:00,
2013-02-14 13:52:00,78.2,70.8,29.85,ESE,122,6.0,11.0,78,0.00,,SCT020CU,0.00,49.00,VWS V14.00,2013-02-14 18:52:00,
2013-02-14 13:57:00,77.6,70.9,29.85,SE,145,4.0,9.0,80,0.00,,SCT020CU,0.00,51.00,VWS V14.00,2013-02-14 18:57:00,
2013-02-14 14:02:00,77.2,70.9,29.85,SSE,155,1.0,6.0,81,0.00,,SCT020CU,0.00,65.00,VWS V14.00,2013-02-14 19:02:00,
2013-02-14 14:07:00,77.1,70.8,29.85,SSE,155,6.0,9.0,81,0.00,,SCT020CU,0.00,67.00,VWS V14.00,2013-02-14 19:07:00,
2013-02-14 14:12:00,77.2,70.9,29.84,SE,143,2.0,6.0,81,0.00,,SCT020CU,0.00,62.00,VWS V14.00,2013-02-14 19:12:00,
2013-02-14 14:17:00,77.3,71.0,29.84,SE,134,5.0,6.0,81,0.00,,SCT020CU,0.00,67.00,VWS V14.00,2013-02-14 19:17:00,
2013-02-14 14:22:00,77.4,71.1,29.84,SE,128,3.0,6.0,81,0.00,,SCT020CU,0.00,125.00,VWS V14.00,2013-02-14 19:22:00,
2013-02-14 14:27:00,77.8,71.5,29.83,SE,126,2.0,5.0,81,0.00,,SCT020CU,0.00,81.00,VWS V14.00,2013-02-14 19:27:00,
2013-02-14 14:32:00,78.2,71.2,29.83,SSE,148,5.0,7.0,79,0.00,,SCT020CU,0.00,58.00,VWS V14.00,2013-02-14 19:32:00,
2013-02-14 14:37:00,78.2,71.2,29.83,SE,133,7.0,7.0,79,0.00,,SCT020CU,0.00,69.00,VWS V14.00,2013-02-14 19:37:00,
2013-02-14 14:42:00,78.1,71.1,29.83,SSE,149,3.0,10.0,79,0.00,,SCT020CU,0.00,49.00,VWS V14.00,2013-02-14 19:42:00,
2013-02-14 14:47:00,77.9,71.2,29.84,SE,132,5.0,10.0,80,0.00,,SCT020CU,0.00,49.00,VWS V14.00,2013-02-14 19:47:00,
2013-02-14 14:52:00,77.7,71.0,29.84,ESE,123,4.0,11.0,80,0.00,,SCT020CU,0.00,51.00,VWS V14.00,2013-02-14 19:52:00,
2013-02-14 14:57:00,77.6,71.3,29.83,SE,136,5.0,6.0,81,0.00,,SCT020CU,0.00,46.00,VWS V14.00,2013-02-14 19:57:00,
2013-02-14 15:02:00,77.3,71.4,29.83,SE,124,11.0,12.0,82,0.00,,SCT020CU,0.00,58.00,VWS V14.00,2013-02-14 20:02:00,
2013-02-14 15:07:00,77.1,71.5,29.82,ESE,115,4.0,14.0,83,0.00,,SCT020CU,0.00,53.00,VWS V14.00,2013-02-14 20:07:00,
2013-02-14 15:12:00,77.1,71.2,29.83,SE,132,4.0,7.0,82,0.00,,SCT020CU,0.00,40.00,VWS V14.00,2013-02-14 20:12:00,
2013-02-14 15:17:00,76.9,71.3,29.82,SE,128,7.0,11.0,83,0.00,,SCT020CU,0.00,44.00,VWS V14.00,2013-02-14 20:17:00,
2013-02-14 15:22:00,76.8,71.2,29.82,ESE,115,9.0,11.0,83,0.00,,SCT020CU,0.00,28.00,VWS V14.00,2013-02-14 20:22:00,
2013-02-14 15:27:00,76.5,71.3,29.83,SSE,153,6.0,12.0,84,0.00,,SCT020CU,0.01,7.00,VWS V14.00,2013-02-14 20:27:00,
2013-02-14 15:32:00,76.1,71.3,29.81,ESE,123,7.0,13.0,85,0.00,,BKN025,0.01,7.00,VWS V14.00,2013-02-14 20:32:00,
2013-02-14 15:37:00,75.4,70.9,29.81,SE,140,0.0,10.0,86,0.00,,BKN025,0.01,9.00,VWS V14.00,2013-02-14 20:37:00,
2013-02-14 15:43:00,75.2,71.1,29.81,SE,135,2.0,3.0,87,0.00,,BKN025,0.01,11.00,VWS V14.00,2013-02-14 20:43:00,
2013-02-14 15:48:00,75.0,71.2,29.82,SE,132,0.0,5.0,88,0.04,,BKN025,0.02,7.00,VWS V14.00,2013-02-14 20:48:00,
2013-02-14 15:53:00,74.8,71.0,29.82,SE,132,0.0,0.0,88,0.04,,BKN025,0.02,9.00,VWS V14.00,2013-02-14 20:53:00,
2013-02-14 15:58:00,74.6,70.8,29.82,SE,142,0.0,0.0,88,0.04,,BKN025,0.02,12.00,VWS V14.00,2013-02-14 20:58:00,
2013-02-14 16:03:00,74.5,70.7,29.83,SE,142,0.0,0.0,88,0.00,,BKN025,0.03,5.00,VWS V14.00,2013-02-14 21:03:00,
2013-02-14 16:08:00,74.4,70.9,29.83,NNE,19,4.0,11.0,89,0.22,,BKN025,0.05,0.00,VWS V14.00,2013-02-14 21:08:00,
2013-02-14 16:13:00,74.0,70.9,29.83,NNE,13,0.0,1.0,90,0.28,,BKN025,0.07,7.00,VWS V14.00,2013-02-14 21:13:00,
2013-02-14 16:18:00,73.8,70.7,29.84,NW,326,0.0,5.0,90,0.29,,BKN025,0.09,23.00,VWS V14.00,2013-02-14 21:18:00,
2013-02-14 16:23:00,73.6,70.5,29.84,North,355,1.0,6.0,90,0.20,,BKN025,0.11,32.00,VWS V14.00,2013-02-14 21:23:00,
2013-02-14 16:28:00,73.4,70.3,29.84,North,355,3.0,5.0,90,0.26,,BKN025,0.13,33.00,VWS V14.00,2013-02-14 21:28:00,
2013-02-14 16:33:00,72.9,69.8,29.84,North,355,3.0,5.0,90,0.23,,BKN025,0.15,28.00,VWS V14.00,2013-02-14 21:33:00,
2013-02-14 16:38:00,72.6,69.5,29.84,North,5,6.0,11.0,90,0.18,,BKN025,0.16,33.00,VWS V14.00,2013-02-14 21:38:00,
2013-02-14 16:43:00,72.4,69.6,29.84,NNE,15,5.0,9.0,91,0.14,,BKN025,0.17,35.00,VWS V14.00,2013-02-14 21:43:00,
2013-02-14 16:48:00,72.4,69.6,29.84,NNE,12,5.0,6.0,91,0.10,,BKN025,0.18,21.00,VWS V14.00,2013-02-14 21:48:00,
2013-02-14 16:53:00,72.4,69.6,29.84,North,5,3.0,4.0,91,0.10,,BKN025,0.18,19.00,VWS V14.00,2013-02-14 21:53:00,
2013-02-14 16:58:00,72.5,69.7,29.84,North,5,1.0,5.0,91,0.08,,BKN025,0.19,25.00,VWS V14.00,2013-02-14 21:58:00,
2013-02-14 17:03:00,72.5,69.7,29.84,North,5,5.0,7.0,91,0.07,,BKN025,0.20,16.00,VWS V14.00,2013-02-14 22:03:00,
2013-02-14 17:08:00,72.5,69.7,29.84,North,5,1.0,1.0,91,0.07,,BKN025,0.20,11.00,VWS V14.00,2013-02-14 22:08:00,
2013-02-14 17:13:00,72.6,69.8,29.84,North,5,2.0,4.0,91,0.06,,BKN025,0.20,14.00,VWS V14.00,2013-02-14 22:13:00,
2013-02-14 17:18:00,72.6,69.8,29.84,North,5,0.0,0.0,91,0.06,,BKN025,0.21,16.00,VWS V14.00,2013-02-14 22:18:00,
2013-02-14 17:23:00,72.7,69.9,29.84,North,5,0.0,0.0,91,0.09,,BKN025,0.22,12.00,VWS V14.00,2013-02-14 22:23:00,
2013-02-14 17:28:00,72.7,69.9,29.84,North,5,0.0,1.0,91,0.13,,BKN025,0.23,0.00,VWS V14.00,2013-02-14 22:28:00,
2013-02-14 17:33:00,72.7,69.9,29.85,North,5,2.0,3.0,91,0.11,,BKN025,0.24,0.00,VWS V14.00,2013-02-14 22:33:00,
2013-02-14 17:38:00,72.7,69.9,29.85,North,5,0.0,0.0,91,0.07,,BKN025,0.24,0.00,VWS V14.00,2013-02-14 22:38:00,
2013-02-14 17:43:00,72.7,69.9,29.86,North,5,0.0,0.0,91,0.07,,BKN025,0.25,0.00,VWS V14.00,2013-02-14 22:43:00,
2013-02-14 17:48:00,72.7,69.9,29.86,North,5,0.0,4.0,91,0.06,,BKN025,0.25,0.00,VWS V14.00,2013-02-14 22:48:00,
2013-02-14 17:53:00,72.5,69.7,29.86,North,5,2.0,4.0,91,0.05,,BKN025,0.26,0.00,VWS V14.00,2013-02-14 22:53:00,
2013-02-14 17:58:00,72.4,69.6,29.86,NNE,13,9.0,9.0,91,0.05,,BKN025,0.26,0.00,VWS V14.00,2013-02-14 22:58:00,
2013-02-14 18:03:00,71.5,68.7,29.90,NNW,329,7.0,13.0,91,0.05,,BKN025,0.27,0.00,VWS V14.00,2013-02-14 23:03:00,
2013-02-14 18:08:00,70.7,67.9,29.90,NNW,329,11.0,11.0,91,0.05,,BKN025,0.27,0.00,VWS V14.00,2013-02-14 23:08:00,
2013-02-14 18:13:00,70.2,67.4,29.90,NW,323,5.0,16.0,91,0.16,,BKN025,0.29,0.00,VWS V14.00,2013-02-14 23:13:00,
2013-02-14 18:18:00,69.7,67.0,29.91,NNW,341,10.0,17.0,91,0.16,,BKN025,0.30,0.00,VWS V14.00,2013-02-14 23:18:00,
2013-02-14 18:23:00,68.6,65.9,29.91,NNW,338,18.0,20.0,91,0.18,,BKN025,0.32,0.00,VWS V14.00,2013-02-14 23:23:00,
2013-02-14 18:28:00,67.6,64.9,29.91,NNW,343,14.0,24.0,91,0.22,,BKN025,0.33,0.00,VWS V14.00,2013-02-14 23:28:00,
2013-02-14 18:33:00,67.0,64.3,29.91,North,360,11.0,21.0,91,0.16,,BKN025,0.34,0.00,VWS V14.00,2013-02-14 23:33:00,
2013-02-14 18:38:00,66.3,63.6,29.91,North,360,18.0,18.0,91,0.13,,BKN025,0.35,0.00,VWS V14.00,2013-02-14 23:38:00,
2013-02-14 18:43:00,65.9,63.5,29.90,NNE,15,17.0,20.0,92,0.16,,BKN025,0.37,0.00,VWS V14.00,2013-02-14 23:43:00,
2013-02-14 18:48:00,65.8,63.4,29.90,North,11,8.0,15.0,92,0.12,,BKN025,0.38,0.00,VWS V14.00,2013-02-14 23:48:00,
2013-02-14 18:53:00,65.4,63.0,29.90,NNE,17,17.0,19.0,92,0.15,,BKN025,0.39,0.00,VWS V14.00,2013-02-14 23:53:00,
2013-02-14 18:58:00,65.0,62.6,29.90,NNE,26,12.0,16.0,92,0.12,,BKN025,0.40,0.00,VWS V14.00,2013-02-14 23:58:00,
2013-02-14 19:03:00,64.7,62.0,29.90,NNE,28,11.0,16.0,91,0.15,,BKN025,0.41,0.00,VWS V14.00,2013-02-15 00:03:00,
2013-02-14 19:08:00,64.5,62.1,29.90,NNE,20,12.0,12.0,92,0.13,,SCT018,0.42,0.00,VWS V14.00,2013-02-15 00:08:00,
2013-02-14 19:13:00,64.4,62.0,29.90,NNE,12,7.0,16.0,92,0.14,,SCT018,0.43,0.00,VWS V14.00,2013-02-15 00:13:00,
2013-02-14 19:18:00,64.4,62.0,29.90,NNE,26,10.0,13.0,92,0.12,,SCT018,0.44,0.00,VWS V14.00,2013-02-15 00:18:00,
2013-02-14 19:23:00,64.3,61.6,29.91,NNE,22,11.0,14.0,91,0.13,,SCT018,0.45,0.00,VWS V14.00,2013-02-15 00:23:00,
2013-02-14 19:28:00,64.3,61.6,29.91,NNE,20,8.0,13.0,91,0.11,,SCT018,0.46,0.00,VWS V14.00,2013-02-15 00:28:00,
2013-02-14 19:33:00,64.3,61.6,29.91,NNE,28,10.0,15.0,91,0.12,,SCT018,0.47,0.00,VWS V14.00,2013-02-15 00:33:00,
2013-02-14 19:38:00,64.3,61.6,29.92,NNE,20,11.0,13.0,91,0.11,,SCT018,0.48,0.00,VWS V14.00,2013-02-15 00:38:00,
2013-02-14 19:44:00,64.2,61.5,29.92,NNE,15,10.0,17.0,91,0.12,,SCT018,0.49,0.00,VWS V14.00,2013-02-15 00:44:00,
2013-02-14 19:49:00,64.2,61.5,29.92,NNE,30,7.0,14.0,91,0.10,,SCT018,0.50,0.00,VWS V14.00,2013-02-15 00:49:00,
2013-02-14 19:53:00,64.2,61.5,29.92,NNE,32,9.0,15.0,91,0.12,,SCT018,0.51,0.00,VWS V14.00,2013-02-15 00:53:00,
2013-02-14 19:59:00,64.2,61.5,29.92,NE,40,10.0,10.0,91,0.09,,SCT018,0.52,0.00,VWS V14.00,2013-02-15 00:59:00,
2013-02-14 20:04:00,64.1,61.4,29.92,NNE,26,7.0,16.0,91,0.11,,SCT018,0.53,0.00,VWS V14.00,2013-02-15 01:04:00,
2013-02-14 20:09:00,64.2,61.5,29.92,NNE,16,15.0,15.0,91,0.11,,SCT018,0.53,0.00,VWS V14.00,2013-02-15 01:09:00,
2013-02-14 20:14:00,64.1,61.4,29.92,NE,35,14.0,18.0,91,0.08,,SCT018,0.54,0.00,VWS V14.00,2013-02-15 01:14:00,
2013-02-14 20:19:00,64.1,61.4,29.92,NE,50,10.0,18.0,91,0.09,,SCT018,0.55,0.00,VWS V14.00,2013-02-15 01:19:00,
2013-02-14 20:24:00,64.1,61.4,29.92,NE,38,5.0,8.0,91,0.09,,SCT018,0.55,0.00,VWS V14.00,2013-02-15 01:24:00,
2013-02-14 20:29:00,64.0,61.3,29.92,NE,40,12.0,17.0,91,0.08,,SCT018,0.56,0.00,VWS V14.00,2013-02-15 01:29:00,
2013-02-14 20:34:00,64.1,61.4,29.93,North,9,10.0,13.0,91,0.07,,BKN020,0.57,0.00,VWS V14.00,2013-02-15 01:34:00,
2013-02-14 20:39:00,64.0,61.3,29.93,North,9,2.0,4.0,91,0.07,,BKN020,0.57,0.00,VWS V14.00,2013-02-15 01:39:00,
2013-02-14 20:44:00,64.0,61.3,29.93,NNE,22,8.0,8.0,91,0.07,,BKN020,0.58,0.00,VWS V14.00,2013-02-15 01:44:00,
2013-02-14 20:49:00,63.9,61.5,29.94,NNE,20,6.0,12.0,92,0.07,,BKN020,0.58,0.00,VWS V14.00,2013-02-15 01:49:00,
2013-02-14 20:54:00,63.8,61.4,29.95,North,355,12.0,13.0,92,0.07,,BKN020,0.59,0.00,VWS V14.00,2013-02-15 01:54:00,
2013-02-14 20:59:00,63.6,61.2,29.95,North,360,14.0,15.0,92,0.07,,BKN020,0.59,0.00,VWS V14.00,2013-02-15 01:59:00,
2013-02-14 21:04:00,63.7,61.3,29.95,North,10,6.0,11.0,92,0.05,,BKN020,0.60,0.00,VWS V14.00,2013-02-15 02:04:00,
2013-02-14 21:09:00,63.6,61.2,29.95,North,5,9.0,9.0,92,0.05,,BKN020,0.60,0.00,VWS V14.00,2013-02-15 02:09:00,
2013-02-14 21:14:00,63.6,61.2,29.96,North,5,3.0,11.0,92,0.06,,BKN020,0.61,0.00,VWS V14.00,2013-02-15 02:14:00,
2013-02-14 21:19:00,63.6,61.2,29.96,North,10,7.0,13.0,92,0.06,,BKN020,0.61,0.00,VWS V14.00,2013-02-15 02:19:00,
2013-02-14 21:24:00,63.5,61.1,29.95,North,5,12.0,12.0,92,0.06,,BKN020,0.62,0.00,VWS V14.00,2013-02-15 02:24:00,
2013-02-14 21:29:00,63.5,61.1,29.95,NE,34,6.0,9.0,92,0.06,,BKN020,0.62,0.00,VWS V14.00,2013-02-15 02:29:00,
2013-02-14 21:34:00,63.4,61.0,29.97,North,5,7.0,8.0,92,0.06,,SCT020,0.63,0.00,VWS V14.00,2013-02-15 02:34:00,
2013-02-14 21:39:00,63.4,61.0,29.97,NNE,14,5.0,12.0,92,0.06,,SCT020,0.63,0.00,VWS V14.00,2013-02-15 02:39:00,
2013-02-14 21:44:00,63.3,60.9,29.96,North,9,7.0,10.0,92,0.07,,SCT020,0.64,0.00,VWS V14.00,2013-02-15 02:44:00,
2013-02-14 21:49:00,63.3,60.9,29.97,North,5,4.0,7.0,92,0.08,,SCT020,0.65,0.00,VWS V14.00,2013-02-15 02:49:00,
2013-02-14 21:54:00,63.3,60.9,29.96,North,5,9.0,15.0,92,0.08,,SCT020,0.65,0.00,VWS V14.00,2013-02-15 02:54:00,
2013-02-14 21:59:00,63.1,60.7,29.96,NNE,18,10.0,14.0,92,0.08,,SCT020,0.66,0.00,VWS V14.00,2013-02-15 02:59:00,
2013-02-14 22:04:00,63.1,60.7,29.96,NNE,20,7.0,11.0,92,0.08,,SCT020,0.67,0.00,VWS V14.00,2013-02-15 03:04:00,
2013-02-14 22:09:00,63.1,60.7,29.95,NE,41,7.0,10.0,92,0.08,,SCT020,0.67,0.00,VWS V14.00,2013-02-15 03:09:00,
2013-02-14 22:14:00,63.1,60.7,29.95,North,9,4.0,13.0,92,0.07,,SCT020,0.68,0.00,VWS V14.00,2013-02-15 03:14:00,
2013-02-14 22:19:00,63.2,60.8,29.96,NNE,25,9.0,10.0,92,0.07,,SCT020,0.68,0.00,VWS V14.00,2013-02-15 03:19:00,
2013-02-14 22:24:00,63.2,60.8,29.96,NNE,26,5.0,6.0,92,0.07,,SCT020,0.69,0.00,VWS V14.00,2013-02-15 03:24:00,
2013-02-14 22:29:00,63.3,60.9,29.96,NNE,20,3.0,6.0,92,0.06,,SCT020,0.69,0.00,VWS V14.00,2013-02-15 03:29:00,
2013-02-14 22:34:00,63.1,60.7,29.96,North,9,7.0,10.0,92,0.06,,SCT018,0.70,0.00,VWS V14.00,2013-02-15 03:34:00,
2013-02-14 22:39:00,63.0,60.6,29.97,North,360,6.0,12.0,92,0.06,,SCT018,0.70,0.00,VWS V14.00,2013-02-15 03:39:00,
2013-02-14 22:45:00,62.9,60.5,29.97,North,9,6.0,10.0,92,0.05,,SCT018,0.71,0.00,VWS V14.00,2013-02-15 03:45:00,
2013-02-14 22:50:00,62.8,60.5,29.97,NNE,17,6.0,11.0,92,0.05,,SCT018,0.71,0.00,VWS V14.00,2013-02-15 03:50:00,
2013-02-14 22:55:00,62.7,60.3,29.96,NNE,32,10.0,13.0,92,0.05,,SCT018,0.72,0.00,VWS V14.00,2013-02-15 03:55:00,
2013-02-14 23:00:00,62.7,60.3,29.96,NNE,24,8.0,9.0,92,0.05,,SCT018,0.72,0.00,VWS V14.00,2013-02-15 04:00:00,
2013-02-14 23:05:00,62.7,60.3,29.96,NNE,17,5.0,6.0,92,0.05,,SCT018,0.72,0.00,VWS V14.00,2013-02-15 04:05:00,
2013-02-14 23:10:00,62.8,60.5,29.95,NNE,26,3.0,5.0,92,0.04,,SCT018,0.73,0.00,VWS V14.00,2013-02-15 04:10:00,
2013-02-14 23:15:00,62.9,60.5,29.95,NE,34,5.0,9.0,92,0.04,,SCT018,0.73,0.00,VWS V14.00,2013-02-15 04:15:00,
2013-02-14 23:20:00,62.9,60.5,29.96,NE,34,4.0,6.0,92,0.04,,SCT018,0.73,0.00,VWS V14.00,2013-02-15 04:20:00,
2013-02-14 23:25:00,62.9,60.5,29.96,NNE,19,7.0,16.0,92,0.04,,SCT018,0.74,0.00,VWS V14.00,2013-02-15 04:25:00,
2013-02-14 23:30:00,62.9,60.5,29.96,NNE,25,4.0,7.0,92,0.04,,SCT018,0.74,0.00,VWS V14.00,2013-02-15 04:30:00,
2013-02-14 23:35:00,63.1,60.7,29.96,North,10,0.0,0.0,92,0.04,,SCT018,0.74,0.00,VWS V14.00,2013-02-15 04:35:00,
2013-02-14 23:40:00,63.1,60.7,29.96,NNE,20,0.0,1.0,92,0.00,,SCT018,0.75,0.00,VWS V14.00,2013-02-15 04:40:00,
2013-02-14 23:45:00,63.1,60.7,29.96,NNE,22,2.0,4.0,92,0.00,,SCT018,0.75,0.00,VWS V14.00,2013-02-15 04:45:00,
2013-02-14 23:50:00,63.2,60.8,29.96,NNE,25,4.0,4.0,92,0.00,,SCT018,0.75,0.00,VWS V14.00,2013-02-15 04:50:00,
2013-02-14 23:55:00,63.1,60.7,29.95,NNE,25,1.0,3.0,92,0.00,,SCT018,0.75,0.00,VWS V14.00,2013-02-15 04:55:00,